Year,Month,Day,Hour,Minute,Value (Times are PST for temperature in C)
2013,08,04,00,00,13.70
2013,08,04,00,01,13.80
2013,08,04,00,02,14.00
2013,08,04,00,03,14.10
2013,08,04,00,04,14.00
2013,08,04,00,05,13.90
2013,08,04,00,06,13.80
2013,08,04,00,07,13.70
2013,08,04,00,08,13.60
2013,08,04,00,09,13.50
2013,08,04,00,10,13.60
2013,08,04,00,11,13.70
2013,08,04,00,12,13.70
2013,08,04,00,13,13.70
2013,08,04,00,14,13.70
2013,08,04,00,15,13.70
2013,08,04,00,16,13.80
2013,08,04,00,17,13.80
2013,08,04,00,18,13.80
2013,08,04,00,19,13.70
2013,08,04,00,20,13.60
2013,08,04,00,21,13.40
2013,08,04,00,22,13.40
2013,08,04,00,23,13.40
2013,08,04,00,24,13.30
2013,08,04,00,25,13.20
2013,08,04,00,26,13.10
2013,08,04,00,27,13.10
2013,08,04,00,28,13.10
2013,08,04,00,29,13.10
2013,08,04,00,30,13.10
2013,08,04,00,31,13.20
2013,08,04,00,32,13.20
2013,08,04,00,33,13.20
2013,08,04,00,34,13.20
2013,08,04,00,35,13.20
2013,08,04,00,36,13.20
2013,08,04,00,37,13.20
2013,08,04,00,38,13.20
2013,08,04,00,39,13.30
2013,08,04,00,40,13.30
2013,08,04,00,41,13.30
2013,08,04,00,42,13.30
2013,08,04,00,43,13.30
2013,08,04,00,44,13.30
2013,08,04,00,45,13.30
2013,08,04,00,46,13.30
2013,08,04,00,47,13.30
2013,08,04,00,48,13.30
2013,08,04,00,49,13.20
2013,08,04,00,50,12.60
2013,08,04,00,51,12.70
2013,08,04,00,52,12.80
2013,08,04,00,53,12.80
2013,08,04,00,54,12.80
2013,08,04,00,55,12.80
2013,08,04,00,56,12.70
2013,08,04,00,57,12.70
2013,08,04,00,58,12.60
2013,08,04,00,59,12.60
2013,08,04,01,00,12.60
2013,08,04,01,01,12.60
2013,08,04,01,02,12.60
2013,08,04,01,03,12.70
2013,08,04,01,04,12.70
2013,08,04,01,05,12.70
2013,08,04,01,06,12.70
2013,08,04,01,07,12.80
2013,08,04,01,08,12.80
2013,08,04,01,09,12.90
2013,08,04,01,10,12.90
2013,08,04,01,11,13.00
2013,08,04,01,12,13.00
2013,08,04,01,13,13.00
2013,08,04,01,14,13.00
2013,08,04,01,15,13.00
2013,08,04,01,16,13.00
2013,08,04,01,17,13.10
2013,08,04,01,18,13.10
2013,08,04,01,19,13.10
2013,08,04,01,20,13.10
2013,08,04,01,21,13.10
2013,08,04,01,22,13.20
2013,08,04,01,23,13.20
2013,08,04,01,24,13.20
2013,08,04,01,25,13.20
2013,08,04,01,26,13.30
2013,08,04,01,27,13.30
2013,08,04,01,28,13.30
2013,08,04,01,29,13.30
2013,08,04,01,30,13.30
2013,08,04,01,31,13.40
2013,08,04,01,32,13.40
2013,08,04,01,33,13.40
2013,08,04,01,34,13.40
2013,08,04,01,35,13.40
2013,08,04,01,36,13.40
2013,08,04,01,37,13.40
2013,08,04,01,38,13.50
2013,08,04,01,39,13.60
2013,08,04,01,40,13.60
2013,08,04,01,41,13.60
2013,08,04,01,42,13.60
2013,08,04,01,43,13.60
2013,08,04,01,44,13.60
2013,08,04,01,45,13.50
2013,08,04,01,46,13.50
2013,08,04,01,47,13.40
2013,08,04,01,48,13.40
2013,08,04,01,49,13.40
2013,08,04,01,50,13.40
2013,08,04,01,51,13.30
2013,08,04,01,52,13.30
2013,08,04,01,53,13.30
2013,08,04,01,54,13.30
2013,08,04,01,55,13.20
2013,08,04,01,56,13.20
2013,08,04,01,57,13.20
2013,08,04,01,58,13.20
2013,08,04,01,59,13.10
2013,08,04,02,00,13.10
2013,08,04,02,01,13.10
2013,08,04,02,02,13.10
2013,08,04,02,03,13.00
2013,08,04,02,04,13.00
2013,08,04,02,05,12.90
2013,08,04,02,06,12.90
2013,08,04,02,07,12.90
2013,08,04,02,08,12.90
2013,08,04,02,09,12.80
2013,08,04,02,10,12.80
2013,08,04,02,11,12.80
2013,08,04,02,12,12.80
2013,08,04,02,13,12.80
2013,08,04,02,14,12.80
2013,08,04,02,15,12.70
2013,08,04,02,16,12.70
2013,08,04,02,17,12.70
2013,08,04,02,18,12.60
2013,08,04,02,19,12.60
2013,08,04,02,20,12.50
2013,08,04,02,21,12.40
2013,08,04,02,22,12.40
2013,08,04,02,23,12.40
2013,08,04,02,24,12.30
2013,08,04,02,25,12.30
2013,08,04,02,26,12.30
2013,08,04,02,27,12.30
2013,08,04,02,28,12.30
2013,08,04,02,29,12.30
2013,08,04,02,30,12.30
2013,08,04,02,31,12.30
2013,08,04,02,32,12.20
2013,08,04,02,33,12.10
2013,08,04,02,34,12.10
2013,08,04,02,35,12.10
2013,08,04,02,36,12.10
2013,08,04,02,37,12.00
2013,08,04,02,38,12.00
2013,08,04,02,39,12.10
2013,08,04,02,40,12.00
2013,08,04,02,41,12.00
2013,08,04,02,42,12.10
2013,08,04,02,43,12.10
2013,08,04,02,44,12.20
2013,08,04,02,45,12.30
2013,08,04,02,46,12.30
2013,08,04,02,47,12.40
2013,08,04,02,48,12.40
2013,08,04,02,49,12.50
2013,08,04,02,50,12.50
2013,08,04,02,51,12.60
2013,08,04,02,52,12.70
2013,08,04,02,53,12.80
2013,08,04,02,54,12.80
2013,08,04,02,55,12.90
2013,08,04,02,56,13.00
2013,08,04,02,57,13.10
2013,08,04,02,58,13.20
2013,08,04,02,59,13.20
2013,08,04,03,00,13.30
2013,08,04,03,01,13.30
2013,08,04,03,02,13.30
2013,08,04,03,03,13.30
2013,08,04,03,04,13.30
2013,08,04,03,05,13.30
2013,08,04,03,06,13.30
2013,08,04,03,07,13.30
2013,08,04,03,08,13.20
2013,08,04,03,09,13.20
2013,08,04,03,10,13.10
2013,08,04,03,11,13.10
2013,08,04,03,12,13.00
2013,08,04,03,13,13.00
2013,08,04,03,14,12.90
2013,08,04,03,15,12.90
2013,08,04,03,16,12.90
2013,08,04,03,17,12.80
2013,08,04,03,18,12.80
2013,08,04,03,19,12.80
2013,08,04,03,20,12.80
2013,08,04,03,21,12.80
2013,08,04,03,22,12.70
2013,08,04,03,23,12.70
2013,08,04,03,24,12.70
2013,08,04,03,25,12.70
2013,08,04,03,26,12.70
2013,08,04,03,27,12.70
2013,08,04,03,28,12.70
2013,08,04,03,29,12.70
2013,08,04,03,30,12.70
2013,08,04,03,31,12.70
2013,08,04,03,32,12.70
2013,08,04,03,33,12.70
2013,08,04,03,34,12.70
2013,08,04,03,35,12.70
2013,08,04,03,36,12.70
2013,08,04,03,37,12.80
2013,08,04,03,38,12.80
2013,08,04,03,39,12.80
2013,08,04,03,40,12.80
2013,08,04,03,41,12.80
2013,08,04,03,42,12.90
2013,08,04,03,43,12.90
2013,08,04,03,44,12.90
2013,08,04,03,45,12.80
2013,08,04,03,46,12.80
2013,08,04,03,47,12.70
2013,08,04,03,48,12.70
2013,08,04,03,49,12.70
2013,08,04,03,50,12.60
2013,08,04,03,51,12.60
2013,08,04,03,52,12.60
2013,08,04,03,53,12.60
2013,08,04,03,54,12.60
2013,08,04,03,55,12.60
2013,08,04,03,56,12.60
2013,08,04,03,57,12.60
2013,08,04,03,58,12.60
2013,08,04,03,59,12.60
2013,08,04,04,00,12.60
2013,08,04,04,01,12.60
2013,08,04,04,02,12.60
2013,08,04,04,03,12.60
2013,08,04,04,04,12.50
2013,08,04,04,05,12.50
2013,08,04,04,06,12.40
2013,08,04,04,07,12.40
2013,08,04,04,08,12.40
2013,08,04,04,09,12.40
2013,08,04,04,10,12.40
2013,08,04,04,11,12.40
2013,08,04,04,12,12.40
2013,08,04,04,13,12.40
2013,08,04,04,14,12.40
2013,08,04,04,15,12.40
2013,08,04,04,16,12.40
2013,08,04,04,17,12.50
2013,08,04,04,18,12.50
2013,08,04,04,19,12.50
2013,08,04,04,20,12.60
2013,08,04,04,21,12.60
2013,08,04,04,22,12.60
2013,08,04,04,23,12.60
2013,08,04,04,24,12.60
2013,08,04,04,25,12.60
2013,08,04,04,26,12.70
2013,08,04,04,27,12.70
2013,08,04,04,28,12.70
2013,08,04,04,29,12.70
2013,08,04,04,30,12.60
2013,08,04,04,31,12.60
2013,08,04,04,32,12.60
2013,08,04,04,33,12.50
2013,08,04,04,34,12.50
2013,08,04,04,35,12.40
2013,08,04,04,36,12.40
2013,08,04,04,37,12.40
2013,08,04,04,38,12.40
2013,08,04,04,39,12.30
2013,08,04,04,40,12.30
2013,08,04,04,41,12.30
2013,08,04,04,42,12.30
2013,08,04,04,43,12.30
2013,08,04,04,44,12.30
2013,08,04,04,45,12.20
2013,08,04,04,46,12.20
2013,08,04,04,47,12.20
2013,08,04,04,48,12.20
2013,08,04,04,49,12.10
2013,08,04,04,50,12.10
2013,08,04,04,51,12.10
2013,08,04,04,52,12.00
2013,08,04,04,53,12.00
2013,08,04,04,54,12.00
2013,08,04,04,55,12.00
2013,08,04,04,56,12.00
2013,08,04,04,57,12.00
2013,08,04,04,58,12.00
2013,08,04,04,59,12.00
2013,08,04,05,00,12.00
2013,08,04,05,01,12.00
2013,08,04,05,02,11.90
2013,08,04,05,03,12.00
2013,08,04,05,04,11.90
2013,08,04,05,05,11.90
2013,08,04,05,06,11.90
2013,08,04,05,07,11.90
2013,08,04,05,08,11.90
2013,08,04,05,09,12.00
2013,08,04,05,10,12.00
2013,08,04,05,11,12.00
2013,08,04,05,12,12.00
2013,08,04,05,13,12.00
2013,08,04,05,14,12.10
2013,08,04,05,15,12.10
2013,08,04,05,16,12.10
2013,08,04,05,17,12.10
2013,08,04,05,18,12.10
2013,08,04,05,19,12.10
2013,08,04,05,20,12.10
2013,08,04,05,21,12.10
2013,08,04,05,22,12.10
2013,08,04,05,23,12.10
2013,08,04,05,24,12.10
2013,08,04,05,25,12.10
2013,08,04,05,26,12.10
2013,08,04,05,27,12.10
2013,08,04,05,28,12.00
2013,08,04,05,29,12.00
2013,08,04,05,30,12.00
2013,08,04,05,31,12.00
2013,08,04,05,32,12.00
2013,08,04,05,33,12.00
2013,08,04,05,34,11.90
2013,08,04,05,35,11.90
2013,08,04,05,36,11.90
2013,08,04,05,37,11.90
2013,08,04,05,38,11.90
2013,08,04,05,39,11.90
2013,08,04,05,40,11.90
2013,08,04,05,41,11.90
2013,08,04,05,42,11.90
2013,08,04,05,43,11.80
2013,08,04,05,44,11.80
2013,08,04,05,45,11.80
2013,08,04,05,46,11.80
2013,08,04,05,47,11.80
2013,08,04,05,48,11.80
2013,08,04,05,49,11.80
2013,08,04,05,50,11.70
2013,08,04,05,51,11.70
2013,08,04,05,52,11.70
2013,08,04,05,53,11.70
2013,08,04,05,54,11.70
2013,08,04,05,55,11.70
2013,08,04,05,56,11.70
2013,08,04,05,57,11.70
2013,08,04,05,58,11.70
2013,08,04,05,59,11.70
2013,08,04,06,00,11.70
2013,08,04,06,01,11.70
2013,08,04,06,02,11.70
2013,08,04,06,03,11.60
2013,08,04,06,04,11.60
2013,08,04,06,05,11.60
2013,08,04,06,06,11.60
2013,08,04,06,07,11.60
2013,08,04,06,08,11.60
2013,08,04,06,09,11.60
2013,08,04,06,10,11.60
2013,08,04,06,11,11.60
2013,08,04,06,12,11.60
2013,08,04,06,13,11.60
2013,08,04,06,14,11.50
2013,08,04,06,15,11.50
2013,08,04,06,16,11.50
2013,08,04,06,17,11.50
2013,08,04,06,18,11.50
2013,08,04,06,19,11.40
2013,08,04,06,20,11.40
2013,08,04,06,21,11.40
2013,08,04,06,22,11.40
2013,08,04,06,23,11.40
2013,08,04,06,24,11.40
2013,08,04,06,25,11.40
2013,08,04,06,26,11.40
2013,08,04,06,27,11.40
2013,08,04,06,28,11.40
2013,08,04,06,29,11.40
2013,08,04,06,30,11.40
2013,08,04,06,31,11.40
2013,08,04,06,32,11.50
2013,08,04,06,33,11.50
2013,08,04,06,34,11.50
2013,08,04,06,35,11.50
2013,08,04,06,36,11.60
2013,08,04,06,37,11.60
2013,08,04,06,38,11.60
2013,08,04,06,39,11.60
2013,08,04,06,40,11.60
2013,08,04,06,41,11.60
2013,08,04,06,42,11.60
2013,08,04,06,43,11.60
2013,08,04,06,44,11.60
2013,08,04,06,45,11.60
2013,08,04,06,46,11.60
2013,08,04,06,47,11.60
2013,08,04,06,48,11.60
2013,08,04,06,49,11.60
2013,08,04,06,50,11.60
2013,08,04,06,51,11.60
2013,08,04,06,52,11.60
2013,08,04,06,53,11.60
2013,08,04,06,54,11.60
2013,08,04,06,55,11.60
2013,08,04,06,56,11.60
2013,08,04,06,57,11.60
2013,08,04,06,58,11.60
2013,08,04,06,59,11.60
2013,08,04,07,00,11.60
2013,08,04,07,01,11.60
2013,08,04,07,02,11.60
2013,08,04,07,03,11.60
2013,08,04,07,04,11.60
2013,08,04,07,05,11.60
2013,08,04,07,06,11.60
2013,08,04,07,07,11.60
2013,08,04,07,08,11.70
2013,08,04,07,09,11.70
2013,08,04,07,10,11.70
2013,08,04,07,11,11.70
2013,08,04,07,12,11.70
2013,08,04,07,13,11.70
2013,08,04,07,14,11.80
2013,08,04,07,15,11.80
2013,08,04,07,16,11.90
2013,08,04,07,17,11.90
2013,08,04,07,18,11.90
2013,08,04,07,19,11.90
2013,08,04,07,20,11.90
2013,08,04,07,21,11.90
2013,08,04,07,22,11.90
2013,08,04,07,23,11.90
2013,08,04,07,24,11.90
2013,08,04,07,25,11.90
2013,08,04,07,26,11.90
2013,08,04,07,27,11.90
2013,08,04,07,28,11.90
2013,08,04,07,29,11.90
2013,08,04,07,30,11.90
2013,08,04,07,31,11.90
2013,08,04,07,32,11.90
2013,08,04,07,33,11.80
2013,08,04,07,34,11.80
2013,08,04,07,35,11.80
2013,08,04,07,36,11.70
2013,08,04,07,37,11.70
2013,08,04,07,38,11.70
2013,08,04,07,39,11.70
2013,08,04,07,40,11.70
2013,08,04,07,41,11.70
2013,08,04,07,42,11.70
2013,08,04,07,43,11.70
2013,08,04,07,44,11.70
2013,08,04,07,45,11.70
2013,08,04,07,46,11.70
2013,08,04,07,47,11.70
2013,08,04,07,48,11.70
2013,08,04,07,49,11.70
2013,08,04,07,50,11.70
2013,08,04,07,51,11.60
2013,08,04,07,52,11.60
2013,08,04,07,53,11.60
2013,08,04,07,54,11.60
2013,08,04,07,55,11.60
2013,08,04,07,56,11.60
2013,08,04,07,57,11.50
2013,08,04,07,58,11.60
2013,08,04,07,59,11.50
2013,08,04,08,00,11.60
2013,08,04,08,01,11.50
2013,08,04,08,02,11.60
2013,08,04,08,03,11.60
2013,08,04,08,04,11.50
2013,08,04,08,05,11.50
2013,08,04,08,06,11.50
2013,08,04,08,07,11.50
2013,08,04,08,08,11.50
2013,08,04,08,09,11.40
2013,08,04,08,10,11.40
2013,08,04,08,11,11.40
2013,08,04,08,12,11.40
2013,08,04,08,13,11.40
2013,08,04,08,14,11.40
2013,08,04,08,15,11.40
2013,08,04,08,16,11.50
2013,08,04,08,17,11.50
2013,08,04,08,18,11.60
2013,08,04,08,19,11.60
2013,08,04,08,20,11.60
2013,08,04,08,21,11.60
2013,08,04,08,22,11.60
2013,08,04,08,23,11.60
2013,08,04,08,24,11.50
2013,08,04,08,25,11.50
2013,08,04,08,26,11.40
2013,08,04,08,27,11.40
2013,08,04,08,28,11.40
2013,08,04,08,29,11.40
2013,08,04,08,30,11.40
2013,08,04,08,31,11.40
2013,08,04,08,32,11.40
2013,08,04,08,33,11.40
2013,08,04,08,34,11.30
2013,08,04,08,35,11.30
2013,08,04,08,36,11.30
2013,08,04,08,37,11.30
2013,08,04,08,38,11.30
2013,08,04,08,39,11.30
2013,08,04,08,40,11.30
2013,08,04,08,41,11.30
2013,08,04,08,42,11.40
2013,08,04,08,43,11.40
2013,08,04,08,44,11.40
2013,08,04,08,45,11.40
2013,08,04,08,46,11.40
2013,08,04,08,47,11.40
2013,08,04,08,48,11.40
2013,08,04,08,49,11.40
2013,08,04,08,50,11.40
2013,08,04,08,51,11.40
2013,08,04,08,52,11.40
2013,08,04,08,53,11.40
2013,08,04,08,54,11.50
2013,08,04,08,55,11.50
2013,08,04,08,56,11.50
2013,08,04,08,57,11.60
2013,08,04,08,58,11.70
2013,08,04,08,59,11.70
2013,08,04,09,00,11.80
2013,08,04,09,01,11.80
2013,08,04,09,02,11.80
2013,08,04,09,03,11.90
2013,08,04,09,04,11.90
2013,08,04,09,05,12.00
2013,08,04,09,06,12.00
2013,08,04,09,07,12.10
2013,08,04,09,08,12.10
2013,08,04,09,09,12.10
2013,08,04,09,10,12.10
2013,08,04,09,11,12.20
2013,08,04,09,12,12.20
2013,08,04,09,13,12.20
2013,08,04,09,14,12.30
2013,08,04,09,15,12.30
2013,08,04,09,16,12.30
2013,08,04,09,17,12.30
2013,08,04,09,18,12.40
2013,08,04,09,19,12.40
2013,08,04,09,20,12.40
2013,08,04,09,21,12.40
2013,08,04,09,22,12.40
2013,08,04,09,23,12.40
2013,08,04,09,24,12.50
2013,08,04,09,25,12.50
2013,08,04,09,26,12.60
2013,08,04,09,27,12.60
2013,08,04,09,28,12.60
2013,08,04,09,29,12.60
2013,08,04,09,30,12.60
2013,08,04,09,31,12.60
2013,08,04,09,32,12.60
2013,08,04,09,33,12.60
2013,08,04,09,34,12.70
2013,08,04,09,35,12.70
2013,08,04,09,36,12.70
2013,08,04,09,37,12.70
2013,08,04,09,38,12.80
2013,08,04,09,39,12.80
2013,08,04,09,40,12.90
2013,08,04,09,41,12.90
2013,08,04,09,42,13.00
2013,08,04,09,43,13.20
2013,08,04,09,44,13.30
2013,08,04,09,45,13.40
2013,08,04,09,46,13.40
2013,08,04,09,47,13.50
2013,08,04,09,48,13.50
2013,08,04,09,49,13.60
2013,08,04,09,50,13.70
2013,08,04,09,51,13.80
2013,08,04,09,52,13.90
2013,08,04,09,53,13.90
2013,08,04,09,54,14.00
2013,08,04,09,55,14.10
2013,08,04,09,56,14.20
2013,08,04,09,57,14.30
2013,08,04,09,58,14.40
2013,08,04,09,59,14.60
2013,08,04,10,00,14.70
2013,08,04,10,01,14.80
2013,08,04,10,02,14.90
2013,08,04,10,03,14.90
2013,08,04,10,04,15.00
2013,08,04,10,05,15.00
2013,08,04,10,06,15.10
2013,08,04,10,07,15.10
2013,08,04,10,08,15.20
2013,08,04,10,09,15.20
2013,08,04,10,10,15.20
2013,08,04,10,11,15.20
2013,08,04,10,12,15.30
2013,08,04,10,13,15.30
2013,08,04,10,14,15.20
2013,08,04,10,15,15.10
2013,08,04,10,16,15.10
2013,08,04,10,17,15.00
2013,08,04,10,18,14.90
2013,08,04,10,19,14.90
2013,08,04,10,20,14.90
2013,08,04,10,21,14.90
2013,08,04,10,22,14.90
2013,08,04,10,23,14.90
2013,08,04,10,24,14.90
2013,08,04,10,25,14.80
2013,08,04,10,26,14.60
2013,08,04,10,27,14.40
2013,08,04,10,28,14.20
2013,08,04,10,29,14.00
2013,08,04,10,30,13.80
2013,08,04,10,31,13.60
2013,08,04,10,32,13.40
2013,08,04,10,33,13.20
2013,08,04,10,34,13.10
2013,08,04,10,35,12.90
2013,08,04,10,36,12.80
2013,08,04,10,37,12.70
2013,08,04,10,38,12.60
2013,08,04,10,39,12.50
2013,08,04,10,40,12.40
2013,08,04,10,41,12.30
2013,08,04,10,42,12.30
2013,08,04,10,43,12.20
2013,08,04,10,44,12.20
2013,08,04,10,45,12.10
2013,08,04,10,46,12.10
2013,08,04,10,47,12.10
2013,08,04,10,48,12.00
2013,08,04,10,49,11.90
2013,08,04,10,50,11.90
2013,08,04,10,51,11.80
2013,08,04,10,52,11.80
2013,08,04,10,53,11.80
2013,08,04,10,54,11.80
2013,08,04,10,55,11.70
2013,08,04,10,56,11.70
2013,08,04,10,57,11.80
2013,08,04,10,58,11.80
2013,08,04,10,59,11.80
2013,08,04,11,00,11.80
2013,08,04,11,01,11.90
2013,08,04,11,02,11.90
2013,08,04,11,03,12.00
2013,08,04,11,04,12.00
2013,08,04,11,05,12.00
2013,08,04,11,06,11.90
2013,08,04,11,07,11.90
2013,08,04,11,08,11.90
2013,08,04,11,09,11.90
2013,08,04,11,10,11.80
2013,08,04,11,11,11.80
2013,08,04,11,12,11.80
2013,08,04,11,13,11.70
2013,08,04,11,14,11.70
2013,08,04,11,15,11.70
2013,08,04,11,16,11.70
2013,08,04,11,17,11.70
2013,08,04,11,18,11.70
2013,08,04,11,19,11.70
2013,08,04,11,20,11.70
2013,08,04,11,21,11.70
2013,08,04,11,22,11.70
2013,08,04,11,23,11.70
2013,08,04,11,24,11.70
2013,08,04,11,25,11.80
2013,08,04,11,26,11.80
2013,08,04,11,27,11.80
2013,08,04,11,28,11.80
2013,08,04,11,29,11.80
2013,08,04,11,30,11.90
2013,08,04,11,31,11.90
2013,08,04,11,32,12.00
2013,08,04,11,33,12.00
2013,08,04,11,34,12.10
2013,08,04,11,35,12.20
2013,08,04,11,36,12.20
2013,08,04,11,37,12.20
2013,08,04,11,38,12.10
2013,08,04,11,39,12.10
2013,08,04,11,40,12.10
2013,08,04,11,41,12.10
2013,08,04,11,42,12.10
2013,08,04,11,43,12.10
2013,08,04,11,44,12.10
2013,08,04,11,45,12.10
2013,08,04,11,46,12.10
2013,08,04,11,47,12.10
2013,08,04,11,48,12.10
2013,08,04,11,49,12.10
2013,08,04,11,50,12.10
2013,08,04,11,51,12.20
2013,08,04,11,52,12.20
2013,08,04,11,53,12.30
2013,08,04,11,54,12.40
2013,08,04,11,55,12.40
2013,08,04,11,56,12.40
2013,08,04,11,57,12.40
2013,08,04,11,58,12.40
2013,08,04,11,59,12.50
2013,08,04,12,00,12.60
2013,08,04,12,01,12.60
2013,08,04,12,02,12.60
2013,08,04,12,03,12.50
2013,08,04,12,04,12.40
2013,08,04,12,05,12.40
2013,08,04,12,06,12.30
2013,08,04,12,07,12.20
2013,08,04,12,08,12.20
2013,08,04,12,09,12.20
2013,08,04,12,10,12.10
2013,08,04,12,11,12.10
2013,08,04,12,12,12.10
2013,08,04,12,13,12.00
2013,08,04,12,14,12.00
2013,08,04,12,15,12.00
2013,08,04,12,16,12.00
2013,08,04,12,17,11.90
2013,08,04,12,18,11.90
2013,08,04,12,19,11.90
2013,08,04,12,20,11.90
2013,08,04,12,21,11.90
2013,08,04,12,22,11.90
2013,08,04,12,23,11.90
2013,08,04,12,24,11.90
2013,08,04,12,25,11.90
2013,08,04,12,26,11.90
2013,08,04,12,27,11.90
2013,08,04,12,28,11.90
2013,08,04,12,29,11.90
2013,08,04,12,30,11.90
2013,08,04,12,31,11.90
2013,08,04,12,32,11.90
2013,08,04,12,33,11.90
2013,08,04,12,34,11.90
2013,08,04,12,35,11.90
2013,08,04,12,36,11.90
2013,08,04,12,37,12.00
2013,08,04,12,38,12.00
2013,08,04,12,39,12.00
2013,08,04,12,40,12.00
2013,08,04,12,41,12.10
2013,08,04,12,42,12.10
2013,08,04,12,43,12.10
2013,08,04,12,44,12.10
2013,08,04,12,45,12.10
2013,08,04,12,46,12.20
2013,08,04,12,47,12.20
2013,08,04,12,48,12.30
2013,08,04,12,49,12.30
2013,08,04,12,50,12.30
2013,08,04,12,51,12.30
2013,08,04,12,52,12.40
2013,08,04,12,53,12.40
2013,08,04,12,54,12.40
2013,08,04,12,55,12.40
2013,08,04,12,56,12.40
2013,08,04,12,57,12.40
2013,08,04,12,58,12.40
2013,08,04,12,59,12.40
2013,08,04,13,00,12.30
2013,08,04,13,01,12.30
2013,08,04,13,02,12.30
2013,08,04,13,03,12.30
2013,08,04,13,04,12.30
2013,08,04,13,05,12.30
2013,08,04,13,06,12.30
2013,08,04,13,07,12.40
2013,08,04,13,08,12.40
2013,08,04,13,09,12.40
2013,08,04,13,10,12.40
2013,08,04,13,11,12.40
2013,08,04,13,12,12.30
2013,08,04,13,13,12.30
2013,08,04,13,14,12.40
2013,08,04,13,15,12.40
2013,08,04,13,16,12.40
2013,08,04,13,17,12.30
2013,08,04,13,18,12.30
2013,08,04,13,19,12.30
2013,08,04,13,20,12.30
2013,08,04,13,21,12.30
2013,08,04,13,22,12.30
2013,08,04,13,23,12.40
2013,08,04,13,24,12.40
2013,08,04,13,25,12.40
2013,08,04,13,26,12.50
2013,08,04,13,27,12.60
2013,08,04,13,28,12.60
2013,08,04,13,29,12.70
2013,08,04,13,30,12.70
2013,08,04,13,31,12.70
2013,08,04,13,32,12.80
2013,08,04,13,33,12.90
2013,08,04,13,34,13.00
2013,08,04,13,35,13.00
2013,08,04,13,36,13.00
2013,08,04,13,37,13.00
2013,08,04,13,38,13.10
2013,08,04,13,39,13.20
2013,08,04,13,40,13.20
2013,08,04,13,41,13.20
2013,08,04,13,42,13.20
2013,08,04,13,43,13.20
2013,08,04,13,44,13.20
2013,08,04,13,45,13.20
2013,08,04,13,46,13.30
2013,08,04,13,47,13.20
2013,08,04,13,48,13.20
2013,08,04,13,49,13.20
2013,08,04,13,50,13.10
2013,08,04,13,51,13.10
2013,08,04,13,52,13.00
2013,08,04,13,53,13.10
2013,08,04,13,54,13.40
2013,08,04,13,55,13.50
2013,08,04,13,56,13.60
2013,08,04,13,57,13.70
2013,08,04,13,58,13.60
2013,08,04,13,59,13.50
2013,08,04,14,00,13.40
2013,08,04,14,01,13.30
2013,08,04,14,02,13.30
2013,08,04,14,03,13.30
2013,08,04,14,04,13.20
2013,08,04,14,05,13.20
2013,08,04,14,06,13.20
2013,08,04,14,07,13.10
2013,08,04,14,08,13.10
2013,08,04,14,09,13.10
2013,08,04,14,10,13.00
2013,08,04,14,11,13.00
2013,08,04,14,12,12.90
2013,08,04,14,13,12.90
2013,08,04,14,14,12.90
2013,08,04,14,15,12.90
2013,08,04,14,16,13.00
2013,08,04,14,17,13.00
2013,08,04,14,18,13.10
2013,08,04,14,19,13.10
2013,08,04,14,20,13.10
2013,08,04,14,21,13.10
2013,08,04,14,22,13.00
2013,08,04,14,23,13.00
2013,08,04,14,24,12.90
2013,08,04,14,25,12.90
2013,08,04,14,26,12.90
2013,08,04,14,27,12.90
2013,08,04,14,28,12.90
2013,08,04,14,29,12.90
2013,08,04,14,30,13.00
2013,08,04,14,31,13.00
2013,08,04,14,32,13.10
2013,08,04,14,33,13.20
2013,08,04,14,34,13.30
2013,08,04,14,35,13.30
2013,08,04,14,36,13.40
2013,08,04,14,37,13.40
2013,08,04,14,38,13.40
2013,08,04,14,39,13.40
2013,08,04,14,40,13.40
2013,08,04,14,41,13.50
2013,08,04,14,42,13.50
2013,08,04,14,43,13.60
2013,08,04,14,44,13.60
2013,08,04,14,45,13.70
2013,08,04,14,46,13.70
2013,08,04,14,47,13.70
2013,08,04,14,48,13.70
2013,08,04,14,49,13.70
2013,08,04,14,50,13.70
2013,08,04,14,51,13.70
2013,08,04,14,52,13.70
2013,08,04,14,53,13.70
2013,08,04,14,54,13.70
2013,08,04,14,55,13.70
2013,08,04,14,56,13.70
2013,08,04,14,57,13.70
2013,08,04,14,58,13.80
2013,08,04,14,59,13.80
2013,08,04,15,00,13.90
2013,08,04,15,01,13.90
2013,08,04,15,02,13.90
2013,08,04,15,03,13.90
2013,08,04,15,04,13.90
2013,08,04,15,05,13.90
2013,08,04,15,06,13.90
2013,08,04,15,07,13.90
2013,08,04,15,08,13.90
2013,08,04,15,09,13.90
2013,08,04,15,10,13.90
2013,08,04,15,11,13.90
2013,08,04,15,12,13.90
2013,08,04,15,13,14.00
2013,08,04,15,14,14.00
2013,08,04,15,15,14.00
2013,08,04,15,16,14.00
2013,08,04,15,17,14.00
2013,08,04,15,18,14.00
2013,08,04,15,19,14.00
2013,08,04,15,20,14.00
2013,08,04,15,21,14.10
2013,08,04,15,22,14.10
2013,08,04,15,23,14.10
2013,08,04,15,24,14.20
2013,08,04,15,25,14.20
2013,08,04,15,26,14.20
2013,08,04,15,27,14.20
2013,08,04,15,28,14.20
2013,08,04,15,29,14.30
2013,08,04,15,30,14.30
2013,08,04,15,31,14.30
2013,08,04,15,32,14.40
2013,08,04,15,33,14.40
2013,08,04,15,34,14.40
2013,08,04,15,35,14.40
2013,08,04,15,36,14.50
2013,08,04,15,37,14.50
2013,08,04,15,38,14.50
2013,08,04,15,39,14.50
2013,08,04,15,40,14.50
2013,08,04,15,41,14.50
2013,08,04,15,42,14.40
2013,08,04,15,43,14.40
2013,08,04,15,44,14.40
2013,08,04,15,45,14.40
2013,08,04,15,46,14.40
2013,08,04,15,47,14.40
2013,08,04,15,48,14.40
2013,08,04,15,49,14.40
2013,08,04,15,50,14.40
2013,08,04,15,51,14.40
2013,08,04,15,52,14.40
2013,08,04,15,53,14.40
2013,08,04,15,54,14.40
2013,08,04,15,55,14.50
2013,08,04,15,56,14.50
2013,08,04,15,57,14.50
2013,08,04,15,58,14.60
2013,08,04,15,59,14.60
2013,08,04,16,00,14.60
2013,08,04,16,01,14.70
2013,08,04,16,02,14.70
2013,08,04,16,03,14.80
2013,08,04,16,04,14.80
2013,08,04,16,05,14.80
2013,08,04,16,06,14.80
2013,08,04,16,07,14.80
2013,08,04,16,08,14.80
2013,08,04,16,09,14.70
2013,08,04,16,10,14.70
2013,08,04,16,11,14.60
2013,08,04,16,12,14.60
2013,08,04,16,13,14.50
2013,08,04,16,14,14.50
2013,08,04,16,15,14.40
2013,08,04,16,16,14.30
2013,08,04,16,17,14.20
2013,08,04,16,18,14.10
2013,08,04,16,19,14.10
2013,08,04,16,20,14.00
2013,08,04,16,21,13.90
2013,08,04,16,22,13.80
2013,08,04,16,23,13.70
2013,08,04,16,24,13.70
2013,08,04,16,25,13.60
2013,08,04,16,26,13.60
2013,08,04,16,27,13.50
2013,08,04,16,28,13.50
2013,08,04,16,29,13.50
2013,08,04,16,30,13.50
2013,08,04,16,31,13.40
2013,08,04,16,32,13.40
2013,08,04,16,33,13.40
2013,08,04,16,34,13.40
2013,08,04,16,35,13.40
2013,08,04,16,36,13.50
2013,08,04,16,37,13.50
2013,08,04,16,38,13.50
2013,08,04,16,39,13.60
2013,08,04,16,40,13.60
2013,08,04,16,41,13.70
2013,08,04,16,42,13.70
2013,08,04,16,43,13.70
2013,08,04,16,44,13.70
2013,08,04,16,45,13.70
2013,08,04,16,46,13.70
2013,08,04,16,47,13.70
2013,08,04,16,48,13.70
2013,08,04,16,49,13.70
2013,08,04,16,50,13.80
2013,08,04,16,51,13.90
2013,08,04,16,52,14.00
2013,08,04,16,53,13.90
2013,08,04,16,54,14.00
2013,08,04,16,55,13.90
2013,08,04,16,56,13.90
2013,08,04,16,57,13.80
2013,08,04,16,58,13.70
2013,08,04,16,59,13.70
2013,08,04,17,00,13.70
2013,08,04,17,01,13.80
2013,08,04,17,02,13.70
2013,08,04,17,03,13.70
2013,08,04,17,04,13.50
2013,08,04,17,05,13.50
2013,08,04,17,06,13.40
2013,08,04,17,07,13.30
2013,08,04,17,08,13.30
2013,08,04,17,09,13.20
2013,08,04,17,10,13.20
2013,08,04,17,11,13.10
2013,08,04,17,12,13.10
2013,08,04,17,13,13.10
2013,08,04,17,14,13.20
2013,08,04,17,15,13.40
2013,08,04,17,16,13.70
2013,08,04,17,17,14.00
2013,08,04,17,18,14.20
2013,08,04,17,19,14.50